Location: Limerick
(52.6650°N, 8.6230°W)
Time: 20:39:24
(UTC+01:00)

ISS - Pass Details

Date: 20 May 2017
Orbit: 402 x 409 km, 51.6° (Epoch: 25 May)

Event Time Altitude Azimuth Distance (km) Brightness Sun altitude
Exits shadow 01:15:30 16° 102° (ESE) 1,160 -1.7 -17.3°
Drops below altitude 10° 01:16:26 10° 91° (E) 1,468 -1.1 -17.3°
Sets 01:18:41 0° 79° (E) 2,329 0.1 -17.3°
